Location: Clanezzo
(45.7500°N, 9.6000°E)
Time: 09:43:31
(UTC+00:00)

CUTE-I - Pass Details

Date: 12 December 2023
Orbit: 807 x 823 km, 98.7° (Epoch: 02 March)

Event Time Altitude Azimuth Distance (km) Brightness Sun altitude
Rises 04:20:19 0° 30° (NNE) 3,366 ? -25.6°
Reaches altitude 10° 04:23:42 10° 53° (NE) 2,429 ? -25.0°
Maximum altitude 04:26:51 16° 89° (E) 2,053 ? -24.5°
Drops below altitude 10° 04:30:00 10° 125° (SE) 2,420 ? -23.9°
Sets 04:33:20 0° 147° (SSE) 3,346 ? -23.4°
